Location: Alsip
(41.6689°N, 87.7387°W)
Time: 14:31:59
(UTC+00:00)

Cosmos 158 Rocket - Pass Details

Date: 14 July 2020
Orbit: 698 x 794 km, 74.0° (Epoch: 12 August)

Event Time Altitude Azimuth Distance (km) Brightness Sun altitude
Rises 03:00:33 0° 200° (SSW) 3,065 6.8 -14.7°
Reaches altitude 10° 03:02:51 10° 201° (SSW) 2,152 6.1 -15.0°
Maximum altitude 03:07:42 84° 290° (WNW) 712 3.8 -15.6°
Drops below altitude 10° 03:12:39 10° 18° (NNE) 2,194 6.8 -16.2°
Sets 03:15:00 0° 20° (NNE) 3,129 7.6 -16.5°
